Back to catalog

TIANFU DONGPO 02

AliveCommunicationsPO
NORAD 53452·PAYLOAD·🇨🇳 China
This satellite name has not been confirmed by official sources yet.

Launched Aug 10, 2022 from Taiyuan Satellite Launch Center

Loading…

Next Passes (next 24 hours)

TLE

FreshSource: Space-Track

Epoch: Sep 13, 2026, 13:57 UTC

1 53452U 22098J   26256.58176458  .04156202  25920-5  78205-3 0  9993
2 53452  97.5516  37.5890 0011341 277.2523  82.7483 16.31937210228832

Track TIANFU DONGPO 02 in real time with AllMySat

Download on the App Store